Tracking 17887 objects as of 10-December-2016
HD Live streaming from Space Station
objects crossing your sky now

UNHA 3 R/B

Track UNHA 3 R/B now!
10-day predictions


NORAD ID: 39027
Int'l Code: 2012-072B
Perigee: 488.5 km
Apogee: 571.7 km
Inclination: 97.3 °
Period: 95.1 minutes
Semi major axis: 6901 km
RCS: 1.274 m2 (large)
Launch date: December 12, 2012
Source: North Korea (NKOR)
Launch site: Yunsong, DPRK (YUN)

Note: This is a ROCKET BODY
Your satellite tracking list
Your tracking list is empty





NASA's NSSDC Master Catalog

Two Line Element Set (TLE):
1 39027U 12072B   16345.50072034  .00000060  00000-0  66449-5 0  9993
2 39027  97.2611 353.1811 0060226 169.5481 190.7019 15.14343891220405
Source of the keplerian elements: AFSPC